Weather History for Chariton, IA

Change the Weather History Date:

Wednesday, May 22, 2013

  Actual Average Record
Temperature  
Mean Temperature 58 °F -  
Max Temperature 62 °F 73 °F 90 °F (1964)
Min Temperature 53 °F 51 °F 32 °F (1963)
Degree Days  
Heating Degree Days 8    
Growing Degree Days 8 (Base 50)    
Moisture  
Dew Point 52 °F    
Average Humidity 85    
Maximum Humidity 94    
Minimum Humidity 77    
Precipitation  
Precipitation 0.02 in - - ()
Sea Level Pressure  
Sea Level Pressure 29.76 in    
Wind  
Wind Speed 9 mph (West)    
Max Wind Speed 17 mph    
Max Gust Speed 25 mph    
Visibility 9 miles    
Events Rain    
Averages and records for this station are not official NWS values.
T = Trace of Precipitation, MM = Missing Value Source: NWS Daily Summary

Daily Weather History Graph

Daily Weather History Graph

Search for Another Location

Airport:

Trip Planner

Search our weather history database for the weather conditions in past years. The results will help you decide how hot, cold, wet, or windy it might be!

Date:

Astronomy

May. 22, 2013 Rise Set
Actual Time 5:49 AM CDT 8:31 PM CDT
Civil Twilight 5:17 AM CDT 9:03 PM CDT
Nautical Twilight 4:37 AM CDT 9:43 PM CDT
Astronomical Twilight 3:51 AM CDT 10:29 PM CDT
Moon 5:53 PM CDT (5/22) 3:55 AM CDT (5/22)
Length of Visible Light 15h 46m
Length of Day
14h 42m
Waxing Gibbous, 91% of the Moon is Illuminated
May 22
Waxing Gibbous
May 24
Full
May 31
Last Quarter
Jun 8
New
Jun 16
First Quarter

Hourly Weather History & Observations

Time (CDT) Temp. Dew Point Humidity Pressure Visibility Wind Dir Wind Speed Gust Speed Precip Events Conditions
12:15 AM 55.4 °F 50.0 °F 82% 29.69 in 10.0 mi SW 4.6 mph - N/A   Partly Cloudy
12:35 AM 55.4 °F 50.0 °F 82% 29.69 in 10.0 mi SSW 4.6 mph - N/A   Mostly Cloudy
12:55 AM 55.4 °F 50.0 °F 82% 29.69 in 10.0 mi SW 5.8 mph - N/A   Overcast
1:15 AM 55.4 °F 50.0 °F 82% 29.69 in 10.0 mi WSW 6.9 mph - N/A   Overcast
1:35 AM 55.4 °F 50.0 °F 82% 29.69 in 10.0 mi WSW 5.8 mph - N/A   Overcast
1:55 AM 55.4 °F 50.0 °F 82% 29.70 in 10.0 mi WSW 6.9 mph - N/A   Overcast
2:15 AM 55.4 °F 50.0 °F 82% 29.70 in 10.0 mi WSW 5.8 mph - N/A   Overcast
4:55 AM 53.6 °F 51.8 °F 94% 29.68 in 10.0 mi West 6.9 mph - N/A   Overcast
5:15 AM 55.4 °F 51.8 °F 88% 29.67 in 10.0 mi West 5.8 mph - N/A   Overcast
5:35 AM 55.4 °F 51.8 °F 88% 29.67 in 10.0 mi West 5.8 mph - N/A   Overcast
5:55 AM 55.4 °F 51.8 °F 88% 29.67 in 10.0 mi West 4.6 mph - N/A   Overcast
6:15 AM 55.4 °F 51.8 °F 88% 29.67 in 10.0 mi West 4.6 mph - N/A   Overcast
6:35 AM 55.4 °F 53.6 °F 94% 29.68 in 10.0 mi West 8.1 mph - N/A   Overcast
6:55 AM 55.4 °F 53.6 °F 94% 29.68 in 10.0 mi West 10.4 mph - N/A   Overcast
7:15 AM 55.4 °F 51.8 °F 88% 29.69 in 10.0 mi West 10.4 mph 16.1 mph N/A   Overcast
7:35 AM 55.4 °F 51.8 °F 88% 29.68 in 10.0 mi West 10.4 mph - N/A   Overcast
7:55 AM 55.4 °F 51.8 °F 88% 29.69 in 10.0 mi West 12.7 mph - N/A   Overcast
8:15 AM 55.4 °F 51.8 °F 88% 29.70 in 10.0 mi West 10.4 mph 18.4 mph N/A   Overcast
8:35 AM 55.4 °F 51.8 °F 88% 29.70 in 10.0 mi West 11.5 mph - N/A   Overcast
8:55 AM 55.4 °F 51.8 °F 88% 29.71 in 10.0 mi West 11.5 mph - N/A   Overcast
9:15 AM 57.2 °F 51.8 °F 82% 29.72 in 10.0 mi West 10.4 mph - N/A   Overcast
9:35 AM 57.2 °F 51.8 °F 82% 29.72 in 10.0 mi West 13.8 mph - N/A   Overcast
9:55 AM 55.4 °F 51.8 °F 88% 29.72 in 5.0 mi West 12.7 mph - N/A   Light Drizzle
10:15 AM 55.4 °F 53.6 °F 94% 29.73 in 7.0 mi WSW 10.4 mph - N/A   Overcast
10:35 AM 57.2 °F 51.8 °F 82% 29.73 in 10.0 mi WSW 11.5 mph 17.3 mph N/A   Overcast
10:55 AM 57.2 °F 53.6 °F 88% 29.73 in 6.0 mi WSW 12.7 mph - N/A   Overcast
11:15 AM 57.2 °F 53.6 °F 88% 29.74 in 10.0 mi West 9.2 mph - N/A   Overcast
11:35 AM 57.2 °F 51.8 °F 82% 29.74 in 10.0 mi WSW 13.8 mph 19.6 mph N/A   Overcast
11:55 AM 57.2 °F 51.8 °F 82% 29.75 in 10.0 mi West 13.8 mph - N/A   Overcast
12:15 PM 59.0 °F 53.6 °F 82% 29.74 in 10.0 mi West 13.8 mph - N/A   Overcast
12:35 PM 59.0 °F 53.6 °F 82% 29.74 in 10.0 mi West 15.0 mph - N/A   Overcast
12:55 PM 59.0 °F 53.6 °F 82% 29.75 in 10.0 mi West 17.3 mph - N/A   Overcast
1:15 PM 59.0 °F 53.6 °F 82% 29.75 in 10.0 mi WSW 12.7 mph 20.7 mph N/A   Overcast
1:35 PM 60.8 °F 53.6 °F 77% 29.75 in 10.0 mi West 16.1 mph - N/A   Overcast
1:55 PM 60.8 °F 55.4 °F 82% 29.75 in 10.0 mi West 12.7 mph 18.4 mph N/A   Overcast
2:15 PM 60.8 °F 53.6 °F 77% 29.75 in 10.0 mi West 15.0 mph - N/A   Light Drizzle
2:35 PM 62.6 °F 55.4 °F 77% 29.75 in 10.0 mi West 13.8 mph - N/A   Overcast
2:55 PM 62.6 °F 55.4 °F 77% 29.75 in 10.0 mi West 13.8 mph 19.6 mph N/A   Overcast
3:15 PM 60.8 °F 55.4 °F 82% 29.76 in 4.0 mi WNW 9.2 mph 21.9 mph N/A   Haze
3:35 PM 59.0 °F 55.4 °F 88% 29.76 in 3.0 mi West 17.3 mph 23.0 mph N/A Rain Light Rain
3:55 PM 59.0 °F 55.4 °F 88% 29.76 in 6.0 mi West 12.7 mph 19.6 mph N/A Rain Light Rain
4:15 PM 59.0 °F 55.4 °F 88% 29.77 in 2.5 mi West 12.7 mph - N/A   Light Drizzle
4:35 PM 57.2 °F 55.4 °F 94% 29.78 in 7.0 mi WNW 17.3 mph 25.3 mph N/A   Overcast
4:55 PM 57.2 °F 55.4 °F 94% 29.78 in 4.0 mi WNW 12.7 mph 21.9 mph 0.02 in   Light Drizzle
5:15 PM 57.2 °F 53.6 °F 88% 29.79 in 9.0 mi WNW 16.1 mph 24.2 mph N/A   Mostly Cloudy
5:35 PM 57.2 °F 53.6 °F 88% 29.79 in 10.0 mi WNW 11.5 mph 20.7 mph N/A   Overcast
5:55 PM 57.2 °F 51.8 °F 82% 29.80 in 10.0 mi WNW 16.1 mph 23.0 mph N/A   Overcast
6:15 PM 57.2 °F 51.8 °F 82% 29.80 in 10.0 mi WNW 12.7 mph - N/A   Overcast
6:35 PM 57.2 °F 51.8 °F 82% 29.81 in 10.0 mi WNW 9.2 mph - N/A   Overcast
6:55 PM 57.2 °F 51.8 °F 82% 29.81 in 10.0 mi WNW 10.4 mph - N/A   Overcast
7:15 PM 57.2 °F 51.8 °F 82% 29.82 in 10.0 mi WNW 12.7 mph - N/A   Overcast
7:35 PM 57.2 °F 50.0 °F 77% 29.83 in 10.0 mi WNW 10.4 mph 17.3 mph N/A   Overcast
7:55 PM 57.2 °F 50.0 °F 77% 29.83 in 10.0 mi WNW 8.1 mph 15.0 mph N/A   Overcast
8:15 PM 57.2 °F 50.0 °F 77% 29.84 in 10.0 mi WNW 8.1 mph - N/A   Overcast
8:35 PM 57.2 °F 50.0 °F 77% 29.84 in 10.0 mi West 9.2 mph - N/A   Overcast
8:55 PM 57.2 °F 51.8 °F 82% 29.85 in 10.0 mi West 6.9 mph - N/A   Overcast
9:15 PM 55.4 °F 51.8 °F 88% 29.85 in 10.0 mi West 8.1 mph - N/A   Overcast
9:35 PM 55.4 °F 51.8 °F 88% 29.86 in 10.0 mi West 6.9 mph - N/A   Overcast
9:55 PM 55.4 °F 51.8 °F 88% 29.87 in 10.0 mi West 9.2 mph - N/A   Overcast
10:15 PM 55.4 °F 51.8 °F 88% 29.87 in 10.0 mi WNW 9.2 mph - N/A   Overcast
10:35 PM 55.4 °F 51.8 °F 88% 29.87 in 10.0 mi WNW 8.1 mph - N/A   Overcast
10:55 PM 55.4 °F 51.8 °F 88% 29.88 in 10.0 mi WNW 9.2 mph - N/A   Mostly Cloudy
11:15 PM 55.4 °F 50.0 °F 82% 29.88 in 10.0 mi WNW 9.2 mph 15.0 mph N/A   Overcast
11:35 PM 55.4 °F 50.0 °F 82% 29.89 in 10.0 mi WNW 11.5 mph - N/A   Overcast
11:55 PM 55.4 °F 50.0 °F 82% 29.89 in 10.0 mi WNW 10.4 mph - N/A   Overcast